Regional Weather Roundup
Issued by NWS

Home | Current Version | Previous Version | Graphics & Text | Print | Product List | Glossary On
Versions: 1 2 3 4 5 6 7 8 9 10 11 12 13 14 15 16 17 18 19 20 21 22 23 24 25 26 27 28 29 30 31 32 33 34 35 36 37 38 39 40 41 42 43 44 45 46 47 48 49 50
000
ASUS45 KTFX 280119
RWRMT
MONTANA HOURLY WEATHER ROUNDUP
NATIONAL WEATHER SERVICE GREAT FALLS MT
719 PM MDT WED AUG 27 2014

NOTE: "FAIR" INDICATES FEW OR NO CLOUDS BELOW 12000 FEET WITH NO
SIGNIFICANT WEATHER AND/OR OBSTRUCTIONS TO VISIBILITY.

* THESE STATIONS ARE NOT UNDER NWS QUALITY CONTROL. THEY DO NOT
   REPORT WEATHER SUCH AS PRECIPITATION OR FOG.

MTZ001>007-043-280200-
WEST OF THE DIVIDE
CITY           SKY/WX    TMP DP  RH WIND       PRES   REMARKS
KALISPELL      CLEAR     82  46  28 S7        29.98F
MISSOULA       CLEAR     82  46  28 S7        30.02F
BUTTE          CLEAR     75  39  27 NW9       30.17S
MULLAN PASS    PTCLDY    68  39  35 VRB5      30.21F
* LINCOLN      N/A       79  45  30 S6G15      N/A
* LOOKOUT PASS N/A       74  40  29 SE6        N/A
* POLSON       N/A       80  45  29 SW2G9      N/A
* RONAN APT    CLEAR     84  45  26 N/A        N/A
* SEELEY LAKE  N/A       82  43  25 SW3G12     N/A
* THOMP F APT  PTCLDY    65  48  54 NE2G12     N/A
$$

MTZ008-052>055-280200-
SOUTHWEST MONTANA
CITY           SKY/WX    TMP DP  RH WIND       PRES   REMARKS
BOZEMAN        PTCLDY    79  43  28 CALM      30.09F
DILLON         PTCLDY    79  39  24 CALM      30.13S
W YELLOWSTONE  MOCLDY    66  41  40 SW12      30.24R
* THREE FORKS  PTCLDY    82  52  35 N/A        N/A
* BOULDER HILL N/A       72  34  25 N4         N/A
* MONIDA PASS  N/A       68  38  33 NW9G14     N/A
* RAYNOLDS PAS N/A       73  70  90 NW8        N/A
* WHITEHALL    N/A       85  42  22 NW5G12     N/A
* WISE RIVER   N/A       76  34  22 NW7G13     N/A
$$

MTZ009>010-012-014-046-048-049-054-280200-
EAST SLOPES AND CENTRAL MONTANA
CITY           SKY/WX    TMP DP  RH WIND       PRES   REMARKS
CUT BANK       CLEAR     79  45  30 W18       30.01S
GREAT FALLS    CLEAR     82  41  23 W6        30.01S
HELENA         CLEAR     82  43  25 W12       30.03S
MALMSTROM AFB  CLEAR     82  43  25 W7        30.01S
* CONRAD       CLEAR     79  46  31 W5         N/A
* EAST GLACIER N/A       73  46  38 W11G17     N/A
* MONARCH      N/A       73  34  24 W10G17     N/A
* PENDROY      N/A       79  41  26 NW11G16    N/A
* ROGERS PASS  N/A       70  42  36 E7G12      N/A
* SAINT MARY   N/A       76  45  33 S7G17      N/A
* SWEET GRASS  N/A       81  44  27 W15G20     N/A
* WHITE SULPH  N/A       77  40  27 W2G11      N/A
$$

MTZ011-013-016-021-035-040-045-047-050-051-280200-
NORTH CENTRAL MONTANA
CITY           SKY/WX    TMP DP  RH WIND       PRES   REMARKS
HAVRE          PTCLDY    86  45  24 NW7       29.90S
LEWISTOWN      CLEAR     79  45  30 NW5       30.05S
* CHINOOK      CLEAR     86  54  33 CALM      29.89S
* FORT BENTON  PTCLDY    86  45  24 W7        29.94F
* CHESTER      N/A       83  39  21 NW8G20     N/A
* DENTON       N/A       82  39  22 NW3G9      N/A
* GEYSER       N/A       79  38  23 W6G11      N/A
* JUDITH GAP   N/A       76  39  26 N10        N/A
* LOMA         N/A       87  47  25 SW2        N/A
$$

MTZ017>020-022>027-061-062-280200-
NORTHEAST MONTANA
CITY           SKY/WX    TMP DP  RH WIND       PRES   REMARKS
GLASGOW        CLEAR     82  52  35 W6        29.91S
GLENDIVE       PTCLDY    75  55  50 S7        29.97F
JORDAN         CLEAR     82  52  35 NW6       29.94S
SIDNEY         CLEAR     75  55  50 S9        29.95F
WOLF POINT     CLEAR     82  54  38 W7        29.90F
* BEAVER HILL  N/A       76  53  45 SE8        N/A
* CIRCLE       N/A       84  56  38 SW4        N/A
* LINDSAY DVD  N/A       79  50  36 S9         N/A
* NAVAJO       N/A       81  50  34 SW9G16     N/A
* SACO         N/A       83  53  36 SW6        N/A
$$

MTZ028>042-056>058-280200-
SOUTHCENTRAL AND SOUTHEAST MONTANA
CITY           SKY/WX    TMP DP  RH WIND       PRES   REMARKS
BAKER          MOCLDY    75  57  54 E12G18    30.02F
BILLINGS       PTCLDY    84  43  24 N9        30.01S
LIVINGSTON     CLEAR     81  39  22 NW6       30.09R
MILES CITY     PTCLDY    82  52  35 S5        29.96F
* LAUREL APT   PTCLDY    82  46  28 N/A        N/A
* ROUNDUP APT  CLEAR     82  46  28 N/A        N/A
* ALZADA       N/A       68  61  78 E6         N/A
* HYSHAM       N/A       81  42  25 SW1        N/A
* LAME DEER    N/A       73  51  46 SE4        N/A
* REED POINT   N/A       82  40  22 W9         N/A
* ROSCOE HILL  N/A       75  30  19 VRB6       N/A
$$

REGIONAL REPORTS...DAKOTAS
CITY           SKY/WX    TMP DP  RH WIND       PRES   REMARKS
WILLISTON      CLEAR     81  54  39 SE8       29.95F
DICKINSON      PTCLDY    70  57  64 SE8       30.01F
BEACH          N/A       70  57  64 SE8       30.01F
CROSBY         CLEAR     73  57  57 S8        29.93F
TIOGA          CLEAR     72  57  59 S8        30.00F
WATFORD CITY   CLEAR     75  54  48 SE8       29.95F
BISMARCK       CLEAR     70  61  73 S8        30.04S
GRAND FORKS    CLEAR     70  59  68 SE6       30.06F
FARGO          CLEAR     70  59  68 SE6       30.07F
BUFFALO SD     CLOUDY    68  61  78 SE8       29.99S
RAPID CITY     CLOUDY    66  63  90 SE10      30.06S
$$

REGIONAL REPORTS...WYOMING/IDAHO/WASHINGTON
CITY           SKY/WX    TMP DP  RH WIND       PRES   REMARKS
GILLETTE       LGT RAIN  61  55  81 S14       30.10F
SHERIDAN       CLOUDY    77  55  47 CALM      30.05F
CODY           MOCLDY    73  48  41 SE10      30.12S
YELLOWSTONE LA PTCLDY    63  37  38 W6G16     30.33R
SALMON         CLEAR     79  52  39 W5        30.05F
MULLAN PASS    PTCLDY    68  39  35 VRB5      30.21S
SAND POINT     PTCLDY    82  46  28 CALM      29.96F
SPOKANE        FAIR      88  45  22 S13       29.97F
$$

REGIONAL REPORTS...ALBERTA
CITY           SKY/WX    TMP DP  RH WIND       PRES   REMARKS
CALGARY        PTCLDY    81  36  20 W12G17    29.90S
LETHBRIDGE     FAIR      81  46  29 W17G26    29.92S
MEDICINE HAT   FAIR      86  50  29 NW3       29.86F
EDMONTON       MOCLDY    72  48  43 N12       29.88F
WATERTON GATE  N/A       73  48  41 SW7        N/A
CARDSTON       N/A       79  50  36 SW7        N/A
MILK RIVER     N/A       81  46  29 W13        N/A
$$

REGIONAL REPORTS...SASKATCHEWAN
CITY           SKY/WX    TMP DP  RH WIND       PRES   REMARKS
SWIFT CURRENT  CLEAR     81  48  32 W9        29.86S
REGINA         N/A       77  64  64 S5        29.87S
VAL MARIE      N/A       79  55  44 S5         N/A
ASSINIBOIA     N/A       77  48  36 S7         N/A
CORONACH       N/A       77  50  39 W7         N/A

$$



USA.gov is the U.S. government's official web portal to all federal, state and local government web resources and services.